User: anonymous   Login
Location: Claremont
(33.9858°S, 18.4575°E)
Time: 23:48:46
(UTC+00:00)
Language:

Cosmos 2237 Rocket - Orbit

View from above orbital plane
View from above orbital plane
View from above satellite
View from above satellite

Ground track
Ground track

The orbit data is extracted from the following two-line orbital elements,

1 22566U 93016B   21127.88369245 -.00000050  00000-0 -14245-5 0  9996
2 22566  71.0069 324.7367 0009029 141.7275 218.4490 14.14969038452223
Epoch (UTC): 07 May 2021 21:12:31
Eccentricity: 0.0009029
inclination: 71.0069°
perigee height: 836 km
apogee height: 849 km
right ascension of ascending node: 324.7367°
argument of perigee: 141.7275°
revolutions per day: 14.14969038
mean anomaly at epoch: 218.4490°
orbit number at epoch: 45222

The dashed part of the orbit path shows where the satellite is in the earth's shadow,  

DLR